Flag for Canada Weather past 2 weeks in Annapolis County, Nova Scotia, Canada

Now
57 °F

Cool.


Feels Like: 57 °F
Forecast: 56 / 75 °F
Wind: No wind

Location: Kejimkujik 1

Current Time: Jul 30, 2015 at 3:54:52 AM

Latest Report: Jul 30, 2015 at 3:00 AM


Visibility: N/A

Pressure: 29.90 "Hg

Humidity: 93%

Dew point: 55 °F

Location of Annapolis CountyLocation

Historic Weather in Annapolis County — Graph

°F

Annapolis County temperature yesterday

Maximum temperature yesterday: 80 °F (at 4:00 PM)
Minimum temperature yesterday: 62 °F (at 5:00 AM)
Average temperature yesterday: 69 °F

Past Weeks' High & Low Weather Summary

 TemperatureHumidityPressure
High80 °F (Jul 29, 4:00 PM)100% (Jul 20, 10:00 AM)30.11 "Hg (Jul 20, 10:00 AM)
Low47 °F (Jul 17, 6:00 AM)28% (Jul 17, 4:00 PM)29.52 "Hg (Jul 22, 4:00 PM)
Average64 °F84%29.88 "Hg
* Reported Jul 15 2:00 AM — Jul 30 2:00 AM, Annapolis County, Weather by CustomWeather, © 2015

Note: Actual official high and low records may vary slightly from our data, if they occured in-between our weather recording intervals... More about our weather records

Advertising

Annapolis County weather history for previous 24 hours

 ConditionsComfort  
Time TempWeatherWind HumidityBarometerVisibility
2:00 AM
Thu, Jul 30
58 °FCool.2 mph93%29.91 "HgN/A
1:00 AM59 °FCool.5 mph91%29.91 "HgN/A
12:00 AM60 °FCool.2 mph90%29.90 "HgN/A
11:00 PM
Wed, Jul 29
63 °FMild.2 mph89%29.90 "HgN/A
10:00 PM65 °FMild.2 mph84%29.90 "HgN/A
9:00 PM67 °FMild.3 mph78%29.88 "HgN/A
8:00 PM72 °FMild.3 mph64%29.88 "HgN/A
7:00 PM76 °FMild.3 mph52%29.87 "HgN/A
6:00 PM76 °FMild.3 mph55%29.87 "HgN/A
5:00 PM80 °FWarm.5 mph44%29.87 "HgN/A
4:00 PM80 °FWarm.7 mph43%29.87 "HgN/A
3:00 PM80 °FWarm.5 mph42%29.87 "HgN/A
2:00 PM80 °FWarm.3 mph53%29.88 "HgN/A
1:00 PM78 °FWarm.6 mph52%29.88 "HgN/A
12:00 PM76 °FMild.2 mph69%29.89 "HgN/A
11:00 AM70 °FMild.3 mph82%29.90 "HgN/A
10:00 AM66 °FMild.3 mph95%29.90 "HgN/A
9:00 AM64 °FMild.2 mph96%29.91 "HgN/A
8:00 AM63 °FMild.3 mph90%29.91 "HgN/A
7:00 AM63 °FMild.5 mph96%29.91 "HgN/A
6:00 AM62 °FCool.3 mph96%29.91 "HgN/A
5:00 AM62 °FCool.2 mph96%29.91 "HgN/A
4:00 AM62 °FCool.2 mph96%29.91 "HgN/A
3:00 AM63 °FMild.3 mph96%29.91 "HgN/A
Weather by CustomWeather, © 2015

See weather overviewHow to use our weather pages